Location: Observatoire de Paris
(48.8363°N, 2.3365°E)
Time: 16:58:58
(UTC+01:00)

BUGSAT 1 - Pass Details

Date: 02 October 2021
Orbit: 557 x 602 km, 98.1° (Epoch: 18 October)

Event Time Altitude Azimuth Distance (km) Brightness Sun altitude
Rises 04:23:21 0° 34° (NE) 2,779 ? -24.6°
Reaches altitude 10° 04:27:09 10° 71° (ENE) 1,863 ? -24.1°
Maximum altitude 04:28:18 11° 88° (E) 1,793 ? -23.9°
Drops below altitude 10° 04:29:26 10° 104° (ESE) 1,854 ? -23.7°
Sets 04:33:10 0° 141° (SE) 2,735 ? -23.1°
